[[{"header":{"parameterUnit":"m.s-1","parameterCategory":1,"la1":30.2991,"la2":30.254,"lo1":-89.0895,"lo2":-89.0444,"dy":0.0017,"dx":0.0017,"nx":28,"ny":28,"refTime":"2025-06-20T03:00:00:Z","depth":0,"parameterNumber":2,"parameterNumberName":"U-component_of_WINDS"},"data":[0,0,0,0,0,0,0,0,0,0,0,0,0,0,0,0,0,0,0,0,0,0,0,0,0,0,0,0,0,0,0,0,0,0,0,0,0,0,0,0,0,0,0,0,0,0,0,0,0,0,0,0,0,0,0,0,0,0,1.5502,1.5505,0,1.5811,1.5815,1.5818,1.5971,1.5971,1.5971,1.5971,1.6283,1.6291,1.6299,0,0,0,0,0,0,0,0,0,0,0,0,0,1.5035,1.5043,1.5501,1.5505,1.5509,1.5811,1.5815,1.5819,1.5971,1.5971,1.5971,1.5971,1.628,1.629,1.63,0,0,0,0,0,0,0,0,0,0,0,0,0,1.528,1.5045,1.5501,1.5621,1.5635,1.581,1.5815,1.582,1.5971,1.5971,1.5971,1.5971,1.6277,1.6289,1.6301,1.6377,0,0,1.6339,1.6345,0,0,0,0,0,0,0,0,1.5266,1.5297,1.56,1.5613,1.5629,1.5853,1.5765,1.6007,1.5971,1.5843,1.5971,1.5971,1.6139,1.6163,1.6221,1.6392,1.6405,1.634,1.6348,1.6353,1.6357,0,0,0,0,0,0,0,1.5249,1.5284,1.5624,1.5604,1.5622,1.5658,1.5693,1.5811,1.5987,1.5854,1.5866,1.5901,1.6147,1.6208,1.6229,1.641,1.634,1.6351,1.6359,1.6363,1.6657,1.6658,0,0,0,0,0,0,1.5213,1.5269,1.5614,1.5633,1.5444,1.5666,1.5705,1.5781,1.5986,1.6018,1.5901,1.5907,1.6187,1.6215,1.6241,1.6344,1.6353,1.6365,1.6372,1.6657,1.6657,1.6658,0,0,0,0,0,0,1.5202,1.5242,1.5602,1.5455,1.5503,1.5674,1.5758,1.5787,1.5849,1.6022,1.6053,1.5932,1.6188,1.6223,1.6342,1.6357,1.637,1.6382,1.6657,1.6657,1.6658,1.6549,0,0,0,0,0,0,1.5188,1.5238,1.527,1.5454,1.551,1.57,1.5759,1.5793,1.587,1.5881,1.6059,1.6088,1.6191,1.6323,1.6355,1.6374,1.6391,1.6656,1.6657,1.6657,1.6553,1.6546,1.6541,0,0,0,0,0,1.5171,1.5227,1.5271,1.5312,1.5555,1.57,1.5732,1.5851,1.5871,1.5904,1.6014,1.6082,1.6349,1.6334,1.6371,1.6394,1.6656,1.6657,1.6657,1.6555,1.6547,1.6541,0,0,0,0,0,0,1.5039,1.5253,1.5305,1.5422,1.5542,1.5726,1.5772,1.5839,1.5955,1.5961,1.6101,1.614,1.6246,1.6332,1.6311,1.6478,1.6509,1.6517,1.6418,1.6413,1.6407,1.6385,1.6402,0,0,0,0,0,1.5024,1.5126,1.5307,1.5392,1.545,1.5599,1.5667,1.5748,1.5878,1.5929,1.6048,1.6169,1.6281,1.6351,1.6463,1.6564,1.6605,1.6598,1.6592,1.6587,1.6593,1.6652,1.6651,1.666,1.666,1.666,0,0,1.4993,1.5123,1.5178,1.5369,1.5472,1.5572,1.5642,1.5745,1.5821,1.5944,1.6065,1.6155,1.63,1.641,1.6464,1.6485,1.6598,1.6588,1.6582,1.6591,1.6652,1.6651,1.665,1.6661,1.6661,1.6661,0,0,1.4989,1.5097,1.5181,1.5281,1.5436,1.5535,1.5554,1.5727,1.5793,1.5916,1.601,1.61,1.6289,1.6388,1.6462,1.6491,1.6558,1.6523,1.6493,1.6549,1.6548,1.6548,1.6558,1.656,1.6528,1.6528,1.6528,0,1.4931,1.5089,1.5214,1.5313,1.5393,1.5509,1.5593,1.5684,1.5866,1.5917,1.5937,1.6176,1.6281,1.6416,1.6422,1.6479,1.6504,1.6505,1.6538,1.654,1.6542,1.6553,1.6556,1.6523,1.6523,1.6524,1.6524,0,1.501,1.5117,1.5165,1.5339,1.5424,1.5514,1.5651,1.5722,1.5793,1.5889,1.6011,1.6141,1.6281,1.6318,1.6389,1.6462,1.647,1.6512,1.6546,1.6533,1.6546,1.6552,1.6515,1.6517,1.6519,1.652,0,0,1.4936,1.5175,1.5191,1.5271,1.5447,1.5532,1.5625,1.5763,1.582,1.594,1.6022,1.6177,1.6217,1.6301,1.6384,1.6432,1.6446,1.6469,1.6475,1.6461,1.6534,1.6502,1.6505,1.649,1.6491,1.6493,1.6522,0,1.4957,1.5134,1.5247,1.5378,1.5477,1.5587,1.5668,1.5784,1.5874,1.597,1.6069,1.6177,1.6222,1.6273,1.6326,1.6433,1.6463,1.6432,1.6567,1.657,1.6529,1.6512,1.648,1.6501,1.6528,1.6529,1.6529,0,1.5007,1.5125,1.5265,1.5429,1.5475,1.5547,1.5681,1.5771,1.5903,1.5965,1.6058,1.6141,1.6242,1.6266,1.6406,1.6383,1.6444,1.6504,1.6508,1.6526,1.655,1.6531,1.6511,1.6514,1.6539,1.6538,1.6537,0,1.4939,1.5132,1.5241,1.5306,1.55,1.5547,1.5629,1.5762,1.5836,1.5952,1.6002,1.6127,1.6195,1.6289,1.6403,1.641,1.6532,1.6565,1.6586,1.6582,1.6609,1.6606,1.6599,1.6644,1.6644,1.6644,1.6644,0,1.4953,1.5034,1.5213,1.528,1.5374,1.5502,1.559,1.5681,1.5797,1.5882,1.5983,1.606,1.6205,1.6299,1.6388,1.6491,1.652,1.6573,1.6596,1.6565,1.6558,1.6608,1.661,1.6645,1.6645,1.6645,1.6644,0,1.4894,1.5018,1.5143,1.5316,1.5361,1.5422,1.5569,1.5636,1.5731,1.5837,1.5869,1.6017,1.6133,1.6255,1.6412,1.6471,1.657,1.6601,1.6526,1.6539,1.6553,1.655,1.658,1.659,1.6626,1.6625,1.6625,0,1.4896,1.4961,1.514,1.5205,1.5285,1.5388,1.5464,1.5591,1.5666,1.5819,1.5868,1.5991,1.6097,1.6276,1.6397,1.6516,1.6552,1.6554,1.6571,1.6537,1.6553,1.6549,1.6556,1.6549,1.6548,1.6547,1.6547,0,1.4885,1.4942,1.505,1.5177,1.5266,1.5372,1.5482,1.5529,1.5676,1.5755,1.5875,1.5957,1.6117,1.6237,1.6371,1.6454,1.6524,1.654,1.6551,1.6521,1.6475,1.6501,1.6512,1.6539,1.654,1.654,1.6541,1.6541,1.4858,1.4921,1.5056,1.5171,1.5267,1.5367,1.5439,1.5542,1.5644,1.5786,1.5853,1.5972,1.61,1.6287,1.6367,1.6462,1.6483,1.6499,1.6503,1.6505,1.6498,1.6458,1.6486,1.6486,1.6487,1.6487,1.6487,0,1.4854,1.4945,1.505,1.5201,1.529,1.5348,1.5472,1.5543,1.5648,1.5761,1.5863,1.5999,1.6116,1.6244,1.6368,1.6418,1.6453,1.6446,1.6445,1.6463,1.6472,1.645,1.6416,1.6416,1.6416,1.6416,1.6416,1.6416,1.4862,1.4971,1.5043,1.5199,1.529,1.5409,1.5475,1.5566,1.5657,1.5806,1.5903,1.5986,1.6105,1.6238,1.6347,1.6381,1.6423,1.6406,1.645,1.6457,1.6462,1.6468,1.6448,1.6414,1.6414,1.6434,1.6434,1.6434]},{"header":{"parameterUnit":"m.s-1","parameterCategory":1,"la1":30.2991,"la2":30.254,"lo1":-89.0895,"lo2":-89.0444,"dy":0.0017,"dx":0.0017,"nx":28,"ny":28,"refTime":"2025-06-20T03:00:00:Z","depth":0,"parameterNumber":3,"parameterNumberName":"V-component_of_WINDS"},"data":[0,0,0,0,0,0,0,0,0,0,0,0,0,0,0,0,0,0,0,0,0,0,0,0,0,0,0,0,0,0,0,0,0,0,0,0,0,0,0,0,0,0,0,0,0,0,0,0,0,0,0,0,0,0,0,0,0,0,1.0635,1.0635,0,1.0645,1.0645,1.0645,1.0571,1.0569,1.0567,1.0565,1.0587,1.0589,1.0592,0,0,0,0,0,0,0,0,0,0,0,0,0,1.056,1.0561,1.0635,1.0635,1.0635,1.0645,1.0645,1.0645,1.0571,1.0569,1.0566,1.0564,1.0586,1.0589,1.0592,0,0,0,0,0,0,0,0,0,0,0,0,0,1.0584,1.0562,1.0635,1.0599,1.0596,1.0645,1.0645,1.0645,1.0572,1.0569,1.0565,1.0562,1.0585,1.0589,1.0593,1.068,0,0,1.0604,1.0606,0,0,0,0,0,0,0,0,1.0582,1.0586,1.0604,1.0602,1.0598,1.0603,1.0626,1.0657,1.0573,1.0581,1.0565,1.0561,1.0596,1.0598,1.0608,1.0681,1.0682,1.0605,1.0607,1.0609,1.061,0,0,0,0,0,0,0,1.0581,1.0586,1.0639,1.0605,1.0601,1.0585,1.0585,1.0632,1.0607,1.058,1.0575,1.0576,1.0593,1.0604,1.0608,1.0682,1.0604,1.0608,1.061,1.0612,1.0823,1.0826,0,0,0,0,0,0,1.0582,1.0585,1.0639,1.0639,1.0582,1.0589,1.0589,1.0605,1.0606,1.0603,1.0579,1.0573,1.0599,1.0603,1.0608,1.0708,1.0609,1.0612,1.0614,1.082,1.0824,1.0827,0,0,0,0,0,0,1.0581,1.0588,1.0638,1.061,1.0615,1.0593,1.0612,1.0607,1.0617,1.0605,1.0601,1.0594,1.0597,1.0603,1.0661,1.0708,1.0614,1.0617,1.0816,1.0821,1.0825,1.0911,0,0,0,0,0,0,1.0579,1.0588,1.062,1.0611,1.0617,1.0689,1.0615,1.0609,1.0623,1.0615,1.0618,1.0615,1.0595,1.0655,1.0664,1.0712,1.062,1.0811,1.0818,1.0824,1.0904,1.0918,1.093,0,0,0,0,0,1.0577,1.0647,1.0622,1.0629,1.0656,1.0692,1.0696,1.0667,1.0627,1.0659,1.065,1.0615,1.07,1.0662,1.0672,1.0721,1.0808,1.0816,1.0823,1.0898,1.0915,1.093,0,0,0,0,0,0,1.0668,1.0645,1.0617,1.0686,1.069,1.0679,1.072,1.0687,1.0707,1.0699,1.0666,1.0667,1.0731,1.0731,1.0688,1.0803,1.0748,1.0757,1.0801,1.0817,1.083,1.083,1.0624,0,0,0,0,0,1.0694,1.0722,1.0702,1.0765,1.0768,1.0743,1.0758,1.0734,1.074,1.0743,1.0739,1.0748,1.0776,1.0796,1.0822,1.0901,1.0901,1.094,1.0953,1.0964,1.0974,1.1014,1.103,1.0852,1.0852,1.0851,0,0,1.0753,1.0744,1.0765,1.0783,1.0784,1.0815,1.0746,1.0784,1.0808,1.075,1.0803,1.08,1.0808,1.0876,1.0906,1.0878,1.1022,1.0973,1.0982,1.0986,1.1023,1.104,1.1055,1.0857,1.0856,1.0855,0,0,1.0875,1.087,1.092,1.092,1.092,1.0902,1.0914,1.0905,1.0899,1.0951,1.0907,1.0936,1.0986,1.0992,1.1002,1.1118,1.1087,1.1128,1.1199,1.1238,1.1252,1.1265,1.1306,1.1322,1.1137,1.1137,1.1138,0,1.0949,1.0991,1.0952,1.099,1.0999,1.0941,1.0993,1.0996,1.1007,1.1015,1.0982,1.104,1.1042,1.111,1.1137,1.1147,1.116,1.113,1.1253,1.1265,1.1276,1.1315,1.1331,1.1142,1.1142,1.1141,1.1141,0,1.1082,1.1112,1.1153,1.1157,1.117,1.1216,1.1184,1.1203,1.1176,1.1162,1.1214,1.1212,1.1235,1.1248,1.1226,1.1312,1.1294,1.1258,1.1202,1.1298,1.1335,1.135,1.115,1.1148,1.1146,1.1145,0,0,1.1268,1.1243,1.126,1.1259,1.1251,1.1275,1.1316,1.1333,1.135,1.1357,1.1392,1.1432,1.1395,1.1407,1.1383,1.1417,1.1508,1.1376,1.1375,1.1401,1.1602,1.1632,1.165,1.1485,1.1488,1.149,1.1602,0,1.1387,1.1453,1.1415,1.1488,1.1515,1.1457,1.1493,1.1493,1.1479,1.1501,1.1487,1.1515,1.1466,1.1471,1.1502,1.1491,1.1549,1.1482,1.152,1.1522,1.1522,1.1669,1.1701,1.1807,1.1616,1.1618,1.162,0,1.1536,1.1543,1.1617,1.1598,1.1608,1.1641,1.1651,1.1672,1.1671,1.1658,1.1666,1.1633,1.1674,1.1615,1.1671,1.1626,1.1638,1.1634,1.1638,1.1643,1.1579,1.168,1.184,1.1857,1.1642,1.164,1.1639,0,1.1665,1.1693,1.1739,1.174,1.1721,1.1745,1.1739,1.1732,1.1744,1.1753,1.176,1.1776,1.1785,1.1799,1.1771,1.173,1.183,1.177,1.1823,1.1824,1.185,1.1849,1.2017,1.1854,1.1854,1.1854,1.1854,0,1.1803,1.1851,1.1795,1.1825,1.1876,1.1832,1.1884,1.1872,1.1866,1.1893,1.1845,1.1872,1.1831,1.1855,1.1833,1.1882,1.1887,1.1879,1.1873,1.1885,1.1886,1.1895,1.1888,1.1858,1.1857,1.1856,1.1856,0,1.1958,1.1922,1.1969,1.1943,1.1938,1.1977,1.1956,1.1983,1.1962,1.1997,1.2003,1.1972,1.1996,1.1968,1.1992,1.1976,1.2043,1.2025,1.2043,1.2038,1.2093,1.2089,1.2275,1.2297,1.2119,1.212,1.2122,0,1.205,1.2084,1.2059,1.2071,1.2065,1.2086,1.2095,1.2051,1.2063,1.2059,1.2087,1.2105,1.2119,1.216,1.2142,1.2159,1.2142,1.2206,1.2145,1.2154,1.2144,1.2143,1.2147,1.222,1.2222,1.2224,1.2225,0,1.2217,1.2195,1.2208,1.2212,1.2222,1.2226,1.2226,1.2239,1.2193,1.2209,1.223,1.2239,1.2259,1.2279,1.2289,1.2285,1.2249,1.2243,1.2257,1.227,1.2279,1.2275,1.2078,1.2241,1.2239,1.2238,1.2237,1.2237,1.2343,1.2369,1.2354,1.2369,1.2362,1.2362,1.2384,1.2363,1.2378,1.2388,1.2361,1.2389,1.2382,1.2391,1.239,1.2412,1.2385,1.2405,1.241,1.2416,1.2424,1.2272,1.2414,1.2414,1.2413,1.2413,1.2412,0,1.2508,1.2493,1.2506,1.2504,1.2515,1.2472,1.2468,1.2482,1.2504,1.2499,1.251,1.2533,1.255,1.253,1.2544,1.2565,1.2548,1.257,1.257,1.2569,1.2448,1.2435,1.2583,1.2583,1.2583,1.2583,1.2583,1.2583,1.2595,1.2636,1.2613,1.265,1.2635,1.2658,1.2659,1.2658,1.2653,1.2679,1.2691,1.2675,1.2664,1.2675,1.2689,1.2682,1.2691,1.2719,1.2707,1.2595,1.2578,1.2563,1.255,1.2721,1.2721,1.2827,1.2828,1.2829]}]]